Location: Faicchio
(41.2833°N, 14.4833°E)
Time: 05:39:50
(UTC+00:00)

COSMOS 2406 - Pass Details

Date: 15 June 2025
Orbit: 844 x 860 km, 71.0° (Epoch: 16 July)

Event Time Altitude Azimuth Distance (km) Brightness Sun altitude
Rises 01:37:53 0° 338° (NNW) 3,442 6.8 -16.1°
Reaches altitude 10° 01:40:22 10° 341° (NNW) 2,503 6.1 -15.8°
Maximum altitude 01:46:06 66° 64° (ENE) 936 3.6 -15.1°
Drops below altitude 10° 01:51:48 10° 147° (SSE) 2,488 5.5 -14.4°
Sets 01:54:16 0° 150° (SSE) 3,420 6.2 -14.1°
